owner,sensor,date,latitude,longitude,vertical_datum,sea_water_practical_salinity,qcFlag 
ENP,ioos.station.NOAA.NDBC:TRRF1:1,2019-05-01T00:00:00Z,25.2170,-80.6500,1.5,7.8,11111222 
ENP,ioos.station.NOAA.NDBC:TRRF1:1,2019-05-01T01:00:00Z,25.2170,-80.6500,1.5,7.84,11111222 
ENP,ioos.station.NOAA.NDBC:TRRF1:1,2019-05-01T02:00:00Z,25.2170,-80.6500,1.5,7.87,11111222 
ENP,ioos.station.NOAA.NDBC:TRRF1:1,2019-05-01T03:00:00Z,25.2170,-80.6500,1.5,7.9,11111222 
ENP,ioos.station.NOAA.NDBC:TRRF1:1,2019-05-01T04:00:00Z,25.2170,-80.6500,1.5,7.93,11111222 
ENP,ioos.station.NOAA.NDBC:TRRF1:1,2019-05-01T05:00:00Z,25.2170,-80.6500,1.5,8.04,11111222 
ENP,ioos.station.NOAA.NDBC:TRRF1:1,2019-05-01T09:00:00Z,25.2170,-80.6500,1.5,7.8,11111222 
ENP,ioos.station.NOAA.NDBC:TRRF1:1,2019-05-01T10:00:00Z,25.2170,-80.6500,1.5,7.69,11111222 
ENP,ioos.station.NOAA.NDBC:TRRF1:1,2019-05-01T11:00:00Z,25.2170,-80.6500,1.5,7.32,11111222 
ENP,ioos.station.NOAA.NDBC:TRRF1:1,2019-05-01T12:00:00Z,25.2170,-80.6500,1.5,7.14,11111222 
ENP,ioos.station.NOAA.NDBC:TRRF1:1,2019-05-01T13:00:00Z,25.2170,-80.6500,1.5,7.15,11111222 
ENP,ioos.station.NOAA.NDBC:TRRF1:1,2019-05-01T14:00:00Z,25.2170,-80.6500,1.5,7.02,11111222 
ENP,ioos.station.NOAA.NDBC:TRRF1:1,2019-05-01T15:00:00Z,25.2170,-80.6500,1.5,6.95,11111222 
ENP,ioos.station.NOAA.NDBC:TRRF1:1,2019-05-01T16:00:00Z,25.2170,-80.6500,1.5,6.92,11111222 
ENP,ioos.station.NOAA.NDBC:TRRF1:1,2019-05-01T17:00:00Z,25.2170,-80.6500,1.5,6.75,11111222 
ENP,ioos.station.NOAA.NDBC:TRRF1:1,2019-05-01T18:00:00Z,25.2170,-80.6500,1.5,6.6,11111222 
ENP,ioos.station.NOAA.NDBC:TRRF1:1,2019-05-01T19:00:00Z,25.2170,-80.6500,1.5,6.59,11111222 
ENP,ioos.station.NOAA.NDBC:TRRF1:1,2019-05-01T20:00:00Z,25.2170,-80.6500,1.5,6.64,11111222 
ENP,ioos.station.NOAA.NDBC:TRRF1:1,2019-05-01T21:00:00Z,25.2170,-80.6500,1.5,6.63,11111222 
ENP,ioos.station.NOAA.NDBC:TRRF1:1,2019-05-01T22:00:00Z,25.2170,-80.6500,1.5,6.61,11111222 
ENP,ioos.station.NOAA.NDBC:TRRF1:1,2019-05-01T23:00:00Z,25.2170,-80.6500,1.5,6.57,11111222 
ENP,ioos.station.NOAA.NDBC:TRRF1:1,2019-05-02T00:00:00Z,25.2170,-80.6500,1.5,6.54,11111222 
ENP,ioos.station.NOAA.NDBC:TRRF1:1,2019-05-02T01:00:00Z,25.2170,-80.6500,1.5,6.51,11111222 
ENP,ioos.station.NOAA.NDBC:TRRF1:1,2019-05-02T02:00:00Z,25.2170,-80.6500,1.5,6.42,11111222 
ENP,ioos.station.NOAA.NDBC:TRRF1:1,2019-05-02T03:00:00Z,25.2170,-80.6500,1.5,6.4,11111222 
ENP,ioos.station.NOAA.NDBC:TRRF1:1,2019-05-02T04:00:00Z,25.2170,-80.6500,1.5,6.26,11111222 
ENP,ioos.station.NOAA.NDBC:TRRF1:1,2019-05-02T05:00:00Z,25.2170,-80.6500,1.5,6.18,11111222 
ENP,ioos.station.NOAA.NDBC:TRRF1:1,2019-05-02T07:00:00Z,25.2170,-80.6500,1.5,6.1,11111222 
ENP,ioos.station.NOAA.NDBC:TRRF1:1,2019-05-02T08:00:00Z,25.2170,-80.6500,1.5,6.07,11111222 
ENP,ioos.station.NOAA.NDBC:TRRF1:1,2019-05-02T09:00:00Z,25.2170,-80.6500,1.5,6.04,11111222 
ENP,ioos.station.NOAA.NDBC:TRRF1:1,2019-05-02T10:00:00Z,25.2170,-80.6500,1.5,6.03,11111222 
ENP,ioos.station.NOAA.NDBC:TRRF1:1,2019-05-02T11:00:00Z,25.2170,-80.6500,1.5,6.02,11111222 
ENP,ioos.station.NOAA.NDBC:TRRF1:1,2019-05-02T12:00:00Z,25.2170,-80.6500,1.5,6.02,11111222 
ENP,ioos.station.NOAA.NDBC:TRRF1:1,2019-05-02T13:00:00Z,25.2170,-80.6500,1.5,6.02,11111222 
ENP,ioos.station.NOAA.NDBC:TRRF1:1,2019-05-02T14:00:00Z,25.2170,-80.6500,1.5,6.02,11111222 
ENP,ioos.station.NOAA.NDBC:TRRF1:1,2019-05-02T15:00:00Z,25.2170,-80.6500,1.5,6.01,11111222 
ENP,ioos.station.NOAA.NDBC:TRRF1:1,2019-05-02T16:00:00Z,25.2170,-80.6500,1.5,6.0,11111222 
ENP,ioos.station.NOAA.NDBC:TRRF1:1,2019-05-02T17:00:00Z,25.2170,-80.6500,1.5,5.98,11111222 
ENP,ioos.station.NOAA.NDBC:TRRF1:1,2019-05-02T18:00:00Z,25.2170,-80.6500,1.5,5.97,11111222 
ENP,ioos.station.NOAA.NDBC:TRRF1:1,2019-05-02T19:00:00Z,25.2170,-80.6500,1.5,5.98,11111222 
ENP,ioos.station.NOAA.NDBC:TRRF1:1,2019-05-02T20:00:00Z,25.2170,-80.6500,1.5,5.98,11111222 
ENP,ioos.station.NOAA.NDBC:TRRF1:1,2019-05-02T21:00:00Z,25.2170,-80.6500,1.5,5.98,11111222 
ENP,ioos.station.NOAA.NDBC:TRRF1:1,2019-05-02T22:00:00Z,25.2170,-80.6500,1.5,5.98,11111222 
ENP,ioos.station.NOAA.NDBC:TRRF1:1,2019-05-02T23:00:00Z,25.2170,-80.6500,1.5,5.97,11111222 
ENP,ioos.station.NOAA.NDBC:TRRF1:1,2019-05-03T00:00:00Z,25.2170,-80.6500,1.5,5.97,11111222 
ENP,ioos.station.NOAA.NDBC:TRRF1:1,2019-05-03T01:00:00Z,25.2170,-80.6500,1.5,5.97,11111222 
ENP,ioos.station.NOAA.NDBC:TRRF1:1,2019-05-03T02:00:00Z,25.2170,-80.6500,1.5,5.97,11111222 
ENP,ioos.station.NOAA.NDBC:TRRF1:1,2019-05-03T03:00:00Z,25.2170,-80.6500,1.5,6.0,11111222 
ENP,ioos.station.NOAA.NDBC:TRRF1:1,2019-05-03T04:00:00Z,25.2170,-80.6500,1.5,5.97,11111222 
ENP,ioos.station.NOAA.NDBC:TRRF1:1,2019-05-03T05:00:00Z,25.2170,-80.6500,1.5,5.97,11111222 
ENP,ioos.station.NOAA.NDBC:TRRF1:1,2019-05-03T10:00:00Z,25.2170,-80.6500,1.5,6.0,11111222 
ENP,ioos.station.NOAA.NDBC:TRRF1:1,2019-05-03T11:00:00Z,25.2170,-80.6500,1.5,5.97,11111222 
ENP,ioos.station.NOAA.NDBC:TRRF1:1,2019-05-03T12:00:00Z,25.2170,-80.6500,1.5,6.0,11111222 
ENP,ioos.station.NOAA.NDBC:TRRF1:1,2019-05-03T13:00:00Z,25.2170,-80.6500,1.5,6.04,11111222 
ENP,ioos.station.NOAA.NDBC:TRRF1:1,2019-05-03T14:00:00Z,25.2170,-80.6500,1.5,6.1,11111222 
ENP,ioos.station.NOAA.NDBC:TRRF1:1,2019-05-03T15:00:00Z,25.2170,-80.6500,1.5,6.2,11111222 
ENP,ioos.station.NOAA.NDBC:TRRF1:1,2019-05-03T16:00:00Z,25.2170,-80.6500,1.5,6.34,11111222 
ENP,ioos.station.NOAA.NDBC:TRRF1:1,2019-05-03T17:00:00Z,25.2170,-80.6500,1.5,6.42,11111222 
ENP,ioos.station.NOAA.NDBC:TRRF1:1,2019-05-03T18:00:00Z,25.2170,-80.6500,1.5,6.5,11111222 
ENP,ioos.station.NOAA.NDBC:TRRF1:1,2019-05-03T19:00:00Z,25.2170,-80.6500,1.5,6.59,11111222 
ENP,ioos.station.NOAA.NDBC:TRRF1:1,2019-05-03T20:00:00Z,25.2170,-80.6500,1.5,6.64,11111222 
ENP,ioos.station.NOAA.NDBC:TRRF1:1,2019-05-03T21:00:00Z,25.2170,-80.6500,1.5,6.74,11111222 
ENP,ioos.station.NOAA.NDBC:TRRF1:1,2019-05-03T22:00:00Z,25.2170,-80.6500,1.5,6.91,11111222 
ENP,ioos.station.NOAA.NDBC:TRRF1:1,2019-05-03T23:00:00Z,25.2170,-80.6500,1.5,7.3,11111222 
ENP,ioos.station.NOAA.NDBC:TRRF1:1,2019-05-04T00:00:00Z,25.2170,-80.6500,1.5,8.67,11111222 
ENP,ioos.station.NOAA.NDBC:TRRF1:1,2019-05-04T01:00:00Z,25.2170,-80.6500,1.5,9.41,11111222 
ENP,ioos.station.NOAA.NDBC:TRRF1:1,2019-05-04T02:00:00Z,25.2170,-80.6500,1.5,10.11,11111222 
ENP,ioos.station.NOAA.NDBC:TRRF1:1,2019-05-04T03:00:00Z,25.2170,-80.6500,1.5,10.6,11111222 
ENP,ioos.station.NOAA.NDBC:TRRF1:1,2019-05-04T04:00:00Z,25.2170,-80.6500,1.5,11.0,11111222 
ENP,ioos.station.NOAA.NDBC:TRRF1:1,2019-05-04T05:00:00Z,25.2170,-80.6500,1.5,11.28,11111222 
ENP,ioos.station.NOAA.NDBC:TRRF1:1,2019-05-04T06:00:00Z,25.2170,-80.6500,1.5,11.56,11111222 
ENP,ioos.station.NOAA.NDBC:TRRF1:1,2019-05-04T07:00:00Z,25.2170,-80.6500,1.5,11.8,11111222 
ENP,ioos.station.NOAA.NDBC:TRRF1:1,2019-05-04T08:00:00Z,25.2170,-80.6500,1.5,12.07,11111222 
ENP,ioos.station.NOAA.NDBC:TRRF1:1,2019-05-04T09:00:00Z,25.2170,-80.6500,1.5,12.37,11111222 
ENP,ioos.station.NOAA.NDBC:TRRF1:1,2019-05-04T10:00:00Z,25.2170,-80.6500,1.5,12.72,11111222 
ENP,ioos.station.NOAA.NDBC:TRRF1:1,2019-05-04T11:00:00Z,25.2170,-80.6500,1.5,12.92,11111222 
ENP,ioos.station.NOAA.NDBC:TRRF1:1,2019-05-04T12:00:00Z,25.2170,-80.6500,1.5,13.13,11111222 
ENP,ioos.station.NOAA.NDBC:TRRF1:1,2019-05-04T13:00:00Z,25.2170,-80.6500,1.5,13.34,11111222 
ENP,ioos.station.NOAA.NDBC:TRRF1:1,2019-05-04T14:00:00Z,25.2170,-80.6500,1.5,13.62,11111222 
ENP,ioos.station.NOAA.NDBC:TRRF1:1,2019-05-04T15:00:00Z,25.2170,-80.6500,1.5,13.76,11111222 
ENP,ioos.station.NOAA.NDBC:TRRF1:1,2019-05-04T16:00:00Z,25.2170,-80.6500,1.5,13.88,11111222 
ENP,ioos.station.NOAA.NDBC:TRRF1:1,2019-05-04T17:00:00Z,25.2170,-80.6500,1.5,13.9,11111222 
ENP,ioos.station.NOAA.NDBC:TRRF1:1,2019-05-04T19:00:00Z,25.2170,-80.6500,1.5,14.1,11111222 
ENP,ioos.station.NOAA.NDBC:TRRF1:1,2019-05-04T20:00:00Z,25.2170,-80.6500,1.5,14.46,11111222 
ENP,ioos.station.NOAA.NDBC:TRRF1:1,2019-05-04T21:00:00Z,25.2170,-80.6500,1.5,14.84,11111222 
ENP,ioos.station.NOAA.NDBC:TRRF1:1,2019-05-04T22:00:00Z,25.2170,-80.6500,1.5,15.3,11111222 
ENP,ioos.station.NOAA.NDBC:TRRF1:1,2019-05-04T23:00:00Z,25.2170,-80.6500,1.5,16.24,11111222 
ENP,ioos.station.NOAA.NDBC:TRRF1:1,2019-05-05T00:00:00Z,25.2170,-80.6500,1.5,16.98,11111222 
ENP,ioos.station.NOAA.NDBC:TRRF1:1,2019-05-05T01:00:00Z,25.2170,-80.6500,1.5,17.4,11111222 
ENP,ioos.station.NOAA.NDBC:TRRF1:1,2019-05-05T02:00:00Z,25.2170,-80.6500,1.5,17.81,11111222 
ENP,ioos.station.NOAA.NDBC:TRRF1:1,2019-05-05T03:00:00Z,25.2170,-80.6500,1.5,18.2,11111222 
ENP,ioos.station.NOAA.NDBC:TRRF1:1,2019-05-05T04:00:00Z,25.2170,-80.6500,1.5,18.56,11111222 
ENP,ioos.station.NOAA.NDBC:TRRF1:1,2019-05-05T05:00:00Z,25.2170,-80.6500,1.5,18.71,11111222 
ENP,ioos.station.NOAA.NDBC:TRRF1:1,2019-05-05T06:00:00Z,25.2170,-80.6500,1.5,18.83,11111222 
ENP,ioos.station.NOAA.NDBC:TRRF1:1,2019-05-05T07:00:00Z,25.2170,-80.6500,1.5,18.96,11111222 
ENP,ioos.station.NOAA.NDBC:TRRF1:1,2019-05-05T08:00:00Z,25.2170,-80.6500,1.5,19.08,11111222 
ENP,ioos.station.NOAA.NDBC:TRRF1:1,2019-05-05T09:00:00Z,25.2170,-80.6500,1.5,19.31,11111222 
ENP,ioos.station.NOAA.NDBC:TRRF1:1,2019-05-05T10:00:00Z,25.2170,-80.6500,1.5,19.52,11111222 
ENP,ioos.station.NOAA.NDBC:TRRF1:1,2019-05-05T11:00:00Z,25.2170,-80.6500,1.5,19.73,11111222 
ENP,ioos.station.NOAA.NDBC:TRRF1:1,2019-05-05T12:00:00Z,25.2170,-80.6500,1.5,19.83,11111222 
ENP,ioos.station.NOAA.NDBC:TRRF1:1,2019-05-05T13:00:00Z,25.2170,-80.6500,1.5,19.71,11111222 
ENP,ioos.station.NOAA.NDBC:TRRF1:1,2019-05-05T14:00:00Z,25.2170,-80.6500,1.5,19.3,11111222 
ENP,ioos.station.NOAA.NDBC:TRRF1:1,2019-05-05T15:00:00Z,25.2170,-80.6500,1.5,19.23,11111222 
ENP,ioos.station.NOAA.NDBC:TRRF1:1,2019-05-05T16:00:00Z,25.2170,-80.6500,1.5,19.28,11111222 
ENP,ioos.station.NOAA.NDBC:TRRF1:1,2019-05-05T17:00:00Z,25.2170,-80.6500,1.5,19.4,11111222 
ENP,ioos.station.NOAA.NDBC:TRRF1:1,2019-05-05T19:00:00Z,25.2170,-80.6500,1.5,19.4,11111222 
ENP,ioos.station.NOAA.NDBC:TRRF1:1,2019-05-05T20:00:00Z,25.2170,-80.6500,1.5,19.0,11111222 
ENP,ioos.station.NOAA.NDBC:TRRF1:1,2019-05-05T21:00:00Z,25.2170,-80.6500,1.5,19.23,11111222 
ENP,ioos.station.NOAA.NDBC:TRRF1:1,2019-05-05T22:00:00Z,25.2170,-80.6500,1.5,19.48,11111222 
ENP,ioos.station.NOAA.NDBC:TRRF1:1,2019-05-05T23:00:00Z,25.2170,-80.6500,1.5,20.12,11111222 
ENP,ioos.station.NOAA.NDBC:TRRF1:1,2019-05-06T00:00:00Z,25.2170,-80.6500,1.5,20.72,11111222 
ENP,ioos.station.NOAA.NDBC:TRRF1:1,2019-05-06T01:00:00Z,25.2170,-80.6500,1.5,21.17,11111222 
ENP,ioos.station.NOAA.NDBC:TRRF1:1,2019-05-06T02:00:00Z,25.2170,-80.6500,1.5,21.98,11111222 
ENP,ioos.station.NOAA.NDBC:TRRF1:1,2019-05-06T03:00:00Z,25.2170,-80.6500,1.5,22.3,11111222 
ENP,ioos.station.NOAA.NDBC:TRRF1:1,2019-05-06T04:00:00Z,25.2170,-80.6500,1.5,22.47,11111222 
ENP,ioos.station.NOAA.NDBC:TRRF1:1,2019-05-06T05:00:00Z,25.2170,-80.6500,1.5,22.58,11111222 
ENP,ioos.station.NOAA.NDBC:TRRF1:1,2019-05-06T06:00:00Z,25.2170,-80.6500,1.5,22.72,11111222 
ENP,ioos.station.NOAA.NDBC:TRRF1:1,2019-05-06T07:00:00Z,25.2170,-80.6500,1.5,22.86,11111222 
ENP,ioos.station.NOAA.NDBC:TRRF1:1,2019-05-06T08:00:00Z,25.2170,-80.6500,1.5,22.93,11111222 
ENP,ioos.station.NOAA.NDBC:TRRF1:1,2019-05-06T09:00:00Z,25.2170,-80.6500,1.5,23.02,11111222 
ENP,ioos.station.NOAA.NDBC:TRRF1:1,2019-05-06T10:00:00Z,25.2170,-80.6500,1.5,23.02,11111222 
ENP,ioos.station.NOAA.NDBC:TRRF1:1,2019-05-06T11:00:00Z,25.2170,-80.6500,1.5,23.01,11111222 
ENP,ioos.station.NOAA.NDBC:TRRF1:1,2019-05-06T12:00:00Z,25.2170,-80.6500,1.5,23.06,11111222 
ENP,ioos.station.NOAA.NDBC:TRRF1:1,2019-05-06T13:00:00Z,25.2170,-80.6500,1.5,23.04,11111222 
ENP,ioos.station.NOAA.NDBC:TRRF1:1,2019-05-06T14:00:00Z,25.2170,-80.6500,1.5,22.76,11111222 
ENP,ioos.station.NOAA.NDBC:TRRF1:1,2019-05-06T15:00:00Z,25.2170,-80.6500,1.5,22.78,11111222 
ENP,ioos.station.NOAA.NDBC:TRRF1:1,2019-05-06T16:00:00Z,25.2170,-80.6500,1.5,22.83,11111222 
ENP,ioos.station.NOAA.NDBC:TRRF1:1,2019-05-06T17:00:00Z,25.2170,-80.6500,1.5,22.33,11111222 
ENP,ioos.station.NOAA.NDBC:TRRF1:1,2019-05-06T18:00:00Z,25.2170,-80.6500,1.5,22.32,11111222 
ENP,ioos.station.NOAA.NDBC:TRRF1:1,2019-05-06T19:00:00Z,25.2170,-80.6500,1.5,21.47,11111222 
ENP,ioos.station.NOAA.NDBC:TRRF1:1,2019-05-06T20:00:00Z,25.2170,-80.6500,1.5,21.05,11111222 
ENP,ioos.station.NOAA.NDBC:TRRF1:1,2019-05-06T21:00:00Z,25.2170,-80.6500,1.5,21.97,11111222 
ENP,ioos.station.NOAA.NDBC:TRRF1:1,2019-05-06T22:00:00Z,25.2170,-80.6500,1.5,22.56,11111222 
ENP,ioos.station.NOAA.NDBC:TRRF1:1,2019-05-06T23:00:00Z,25.2170,-80.6500,1.5,23.51,11111222 
ENP,ioos.station.NOAA.NDBC:TRRF1:1,2019-05-07T00:00:00Z,25.2170,-80.6500,1.5,23.88,11111222 
ENP,ioos.station.NOAA.NDBC:TRRF1:1,2019-05-07T01:00:00Z,25.2170,-80.6500,1.5,24.6,11111222 
ENP,ioos.station.NOAA.NDBC:TRRF1:1,2019-05-07T02:00:00Z,25.2170,-80.6500,1.5,24.83,11111222 
ENP,ioos.station.NOAA.NDBC:TRRF1:1,2019-05-07T03:00:00Z,25.2170,-80.6500,1.5,24.9,11111222 
ENP,ioos.station.NOAA.NDBC:TRRF1:1,2019-05-07T04:00:00Z,25.2170,-80.6500,1.5,24.99,11111222 
ENP,ioos.station.NOAA.NDBC:TRRF1:1,2019-05-07T05:00:00Z,25.2170,-80.6500,1.5,25.06,11111222 
ENP,ioos.station.NOAA.NDBC:TRRF1:1,2019-05-07T06:00:00Z,25.2170,-80.6500,1.5,25.12,11111222 
ENP,ioos.station.NOAA.NDBC:TRRF1:1,2019-05-07T07:00:00Z,25.2170,-80.6500,1.5,25.12,11111222 
ENP,ioos.station.NOAA.NDBC:TRRF1:1,2019-05-07T08:00:00Z,25.2170,-80.6500,1.5,25.13,11111222 
ENP,ioos.station.NOAA.NDBC:TRRF1:1,2019-05-07T09:00:00Z,25.2170,-80.6500,1.5,25.16,11111222 
ENP,ioos.station.NOAA.NDBC:TRRF1:1,2019-05-07T10:00:00Z,25.2170,-80.6500,1.5,25.15,11111222 
ENP,ioos.station.NOAA.NDBC:TRRF1:1,2019-05-07T11:00:00Z,25.2170,-80.6500,1.5,25.21,11111222 
ENP,ioos.station.NOAA.NDBC:TRRF1:1,2019-05-07T12:00:00Z,25.2170,-80.6500,1.5,25.3,11111222 
ENP,ioos.station.NOAA.NDBC:TRRF1:1,2019-05-07T13:00:00Z,25.2170,-80.6500,1.5,25.35,11111222 
ENP,ioos.station.NOAA.NDBC:TRRF1:1,2019-05-07T14:00:00Z,25.2170,-80.6500,1.5,25.31,11111222 
ENP,ioos.station.NOAA.NDBC:TRRF1:1,2019-05-07T15:00:00Z,25.2170,-80.6500,1.5,25.2,11111222 
ENP,ioos.station.NOAA.NDBC:TRRF1:1,2019-05-07T16:00:00Z,25.2170,-80.6500,1.5,25.08,11111222 
ENP,ioos.station.NOAA.NDBC:TRRF1:1,2019-05-07T17:00:00Z,25.2170,-80.6500,1.5,25.08,11111222 
ENP,ioos.station.NOAA.NDBC:TRRF1:1,2019-05-07T18:00:00Z,25.2170,-80.6500,1.5,25.03,11111222 
ENP,ioos.station.NOAA.NDBC:TRRF1:1,2019-05-07T19:00:00Z,25.2170,-80.6500,1.5,25.11,11111222 
ENP,ioos.station.NOAA.NDBC:TRRF1:1,2019-05-07T20:00:00Z,25.2170,-80.6500,1.5,25.27,11111222 
ENP,ioos.station.NOAA.NDBC:TRRF1:1,2019-05-07T21:00:00Z,25.2170,-80.6500,1.5,25.12,11111222 
ENP,ioos.station.NOAA.NDBC:TRRF1:1,2019-05-07T22:00:00Z,25.2170,-80.6500,1.5,24.75,11111222 
ENP,ioos.station.NOAA.NDBC:TRRF1:1,2019-05-07T23:00:00Z,25.2170,-80.6500,1.5,24.99,11111222 
ENP,ioos.station.NOAA.NDBC:TRRF1:1,2019-05-08T00:00:00Z,25.2170,-80.6500,1.5,25.18,11111222 
ENP,ioos.station.NOAA.NDBC:TRRF1:1,2019-05-08T01:00:00Z,25.2170,-80.6500,1.5,25.45,11111222 
ENP,ioos.station.NOAA.NDBC:TRRF1:1,2019-05-08T02:00:00Z,25.2170,-80.6500,1.5,25.53,11111222 
ENP,ioos.station.NOAA.NDBC:TRRF1:1,2019-05-08T03:00:00Z,25.2170,-80.6500,1.5,25.5,11111222 
ENP,ioos.station.NOAA.NDBC:TRRF1:1,2019-05-08T04:00:00Z,25.2170,-80.6500,1.5,25.54,11111222 
ENP,ioos.station.NOAA.NDBC:TRRF1:1,2019-05-08T05:00:00Z,25.2170,-80.6500,1.5,25.54,11111222 
ENP,ioos.station.NOAA.NDBC:TRRF1:1,2019-05-08T06:00:00Z,25.2170,-80.6500,1.5,25.62,11111222 
ENP,ioos.station.NOAA.NDBC:TRRF1:1,2019-05-08T07:00:00Z,25.2170,-80.6500,1.5,25.63,11111222 
ENP,ioos.station.NOAA.NDBC:TRRF1:1,2019-05-08T08:00:00Z,25.2170,-80.6500,1.5,25.63,11111222 
ENP,ioos.station.NOAA.NDBC:TRRF1:1,2019-05-08T09:00:00Z,25.2170,-80.6500,1.5,25.56,11111222 
ENP,ioos.station.NOAA.NDBC:TRRF1:1,2019-05-08T10:00:00Z,25.2170,-80.6500,1.5,25.53,11111222 
ENP,ioos.station.NOAA.NDBC:TRRF1:1,2019-05-08T11:00:00Z,25.2170,-80.6500,1.5,25.52,11111222 
ENP,ioos.station.NOAA.NDBC:TRRF1:1,2019-05-08T12:00:00Z,25.2170,-80.6500,1.5,25.51,11111222 
ENP,ioos.station.NOAA.NDBC:TRRF1:1,2019-05-08T13:00:00Z,25.2170,-80.6500,1.5,25.51,11111222 
ENP,ioos.station.NOAA.NDBC:TRRF1:1,2019-05-08T14:00:00Z,25.2170,-80.6500,1.5,25.49,11111222 
ENP,ioos.station.NOAA.NDBC:TRRF1:1,2019-05-08T15:00:00Z,25.2170,-80.6500,1.5,25.23,11111222 
ENP,ioos.station.NOAA.NDBC:TRRF1:1,2019-05-08T16:00:00Z,25.2170,-80.6500,1.5,25.01,11111222 
ENP,ioos.station.NOAA.NDBC:TRRF1:1,2019-05-08T17:00:00Z,25.2170,-80.6500,1.5,24.61,11111222 
ENP,ioos.station.NOAA.NDBC:TRRF1:1,2019-05-08T18:00:00Z,25.2170,-80.6500,1.5,24.27,11111222 
ENP,ioos.station.NOAA.NDBC:TRRF1:1,2019-05-08T19:00:00Z,25.2170,-80.6500,1.5,24.07,11111222 
ENP,ioos.station.NOAA.NDBC:TRRF1:1,2019-05-08T20:00:00Z,25.2170,-80.6500,1.5,24.0,11111222 
ENP,ioos.station.NOAA.NDBC:TRRF1:1,2019-05-08T21:00:00Z,25.2170,-80.6500,1.5,23.78,11111222 
ENP,ioos.station.NOAA.NDBC:TRRF1:1,2019-05-08T22:00:00Z,25.2170,-80.6500,1.5,23.69,11111222 
ENP,ioos.station.NOAA.NDBC:TRRF1:1,2019-05-08T23:00:00Z,25.2170,-80.6500,1.5,23.88,11111222 
ENP,ioos.station.NOAA.NDBC:TRRF1:1,2019-05-09T00:00:00Z,25.2170,-80.6500,1.5,24.03,11111222 
ENP,ioos.station.NOAA.NDBC:TRRF1:1,2019-05-09T01:00:00Z,25.2170,-80.6500,1.5,24.3,11111222 
ENP,ioos.station.NOAA.NDBC:TRRF1:1,2019-05-09T02:00:00Z,25.2170,-80.6500,1.5,24.39,11111222 
ENP,ioos.station.NOAA.NDBC:TRRF1:1,2019-05-09T03:00:00Z,25.2170,-80.6500,1.5,24.3,11111222 
ENP,ioos.station.NOAA.NDBC:TRRF1:1,2019-05-09T04:00:00Z,25.2170,-80.6500,1.5,24.73,11111222 
ENP,ioos.station.NOAA.NDBC:TRRF1:1,2019-05-09T05:00:00Z,25.2170,-80.6500,1.5,25.24,11111222 
ENP,ioos.station.NOAA.NDBC:TRRF1:1,2019-05-09T06:00:00Z,25.2170,-80.6500,1.5,25.4,11111222 
ENP,ioos.station.NOAA.NDBC:TRRF1:1,2019-05-09T07:00:00Z,25.2170,-80.6500,1.5,25.42,11111222 
ENP,ioos.station.NOAA.NDBC:TRRF1:1,2019-05-09T08:00:00Z,25.2170,-80.6500,1.5,25.43,11111222 
ENP,ioos.station.NOAA.NDBC:TRRF1:1,2019-05-09T09:00:00Z,25.2170,-80.6500,1.5,25.43,11111222 
ENP,ioos.station.NOAA.NDBC:TRRF1:1,2019-05-09T10:00:00Z,25.2170,-80.6500,1.5,25.41,11111222 
ENP,ioos.station.NOAA.NDBC:TRRF1:1,2019-05-09T11:00:00Z,25.2170,-80.6500,1.5,25.38,11111222 
ENP,ioos.station.NOAA.NDBC:TRRF1:1,2019-05-09T12:00:00Z,25.2170,-80.6500,1.5,25.37,11111222 
ENP,ioos.station.NOAA.NDBC:TRRF1:1,2019-05-09T13:00:00Z,25.2170,-80.6500,1.5,25.37,11111222 
ENP,ioos.station.NOAA.NDBC:TRRF1:1,2019-05-09T14:00:00Z,25.2170,-80.6500,1.5,25.4,11111222 
ENP,ioos.station.NOAA.NDBC:TRRF1:1,2019-05-09T15:00:00Z,25.2170,-80.6500,1.5,25.4,11111222 
ENP,ioos.station.NOAA.NDBC:TRRF1:1,2019-05-09T16:00:00Z,25.2170,-80.6500,1.5,25.39,11111222 
ENP,ioos.station.NOAA.NDBC:TRRF1:1,2019-05-09T17:00:00Z,25.2170,-80.6500,1.5,25.15,11111222 
ENP,ioos.station.NOAA.NDBC:TRRF1:1,2019-05-09T18:00:00Z,25.2170,-80.6500,1.5,24.31,11111222 
ENP,ioos.station.NOAA.NDBC:TRRF1:1,2019-05-09T19:00:00Z,25.2170,-80.6500,1.5,23.62,11111222 
ENP,ioos.station.NOAA.NDBC:TRRF1:1,2019-05-09T20:00:00Z,25.2170,-80.6500,1.5,23.69,11111222 
ENP,ioos.station.NOAA.NDBC:TRRF1:1,2019-05-09T21:00:00Z,25.2170,-80.6500,1.5,24.29,11111222 
ENP,ioos.station.NOAA.NDBC:TRRF1:1,2019-05-09T22:00:00Z,25.2170,-80.6500,1.5,24.55,11111222 
ENP,ioos.station.NOAA.NDBC:TRRF1:1,2019-05-09T23:00:00Z,25.2170,-80.6500,1.5,24.73,11111222 
ENP,ioos.station.NOAA.NDBC:TRRF1:1,2019-05-10T00:00:00Z,25.2170,-80.6500,1.5,25.23,11111222 
ENP,ioos.station.NOAA.NDBC:TRRF1:1,2019-05-10T01:00:00Z,25.2170,-80.6500,1.5,25.56,11111222 
ENP,ioos.station.NOAA.NDBC:TRRF1:1,2019-05-10T03:00:00Z,25.2170,-80.6500,1.5,25.9,11111222 
ENP,ioos.station.NOAA.NDBC:TRRF1:1,2019-05-10T04:00:00Z,25.2170,-80.6500,1.5,26.15,11111222 
ENP,ioos.station.NOAA.NDBC:TRRF1:1,2019-05-10T05:00:00Z,25.2170,-80.6500,1.5,26.18,11111222 
ENP,ioos.station.NOAA.NDBC:TRRF1:1,2019-05-10T06:00:00Z,25.2170,-80.6500,1.5,26.25,11111222 
ENP,ioos.station.NOAA.NDBC:TRRF1:1,2019-05-10T07:00:00Z,25.2170,-80.6500,1.5,26.37,11111222 
ENP,ioos.station.NOAA.NDBC:TRRF1:1,2019-05-10T08:00:00Z,25.2170,-80.6500,1.5,26.36,11111222 
ENP,ioos.station.NOAA.NDBC:TRRF1:1,2019-05-10T09:00:00Z,25.2170,-80.6500,1.5,26.26,11111222 
ENP,ioos.station.NOAA.NDBC:TRRF1:1,2019-05-10T10:00:00Z,25.2170,-80.6500,1.5,26.25,11111222 
ENP,ioos.station.NOAA.NDBC:TRRF1:1,2019-05-10T11:00:00Z,25.2170,-80.6500,1.5,26.31,11111222 
ENP,ioos.station.NOAA.NDBC:TRRF1:1,2019-05-10T12:00:00Z,25.2170,-80.6500,1.5,26.27,11111222 
ENP,ioos.station.NOAA.NDBC:TRRF1:1,2019-05-10T13:00:00Z,25.2170,-80.6500,1.5,26.21,11111222 
ENP,ioos.station.NOAA.NDBC:TRRF1:1,2019-05-10T14:00:00Z,25.2170,-80.6500,1.5,26.19,11111222 
ENP,ioos.station.NOAA.NDBC:TRRF1:1,2019-05-10T15:00:00Z,25.2170,-80.6500,1.5,25.75,11111222 
ENP,ioos.station.NOAA.NDBC:TRRF1:1,2019-05-10T16:00:00Z,25.2170,-80.6500,1.5,25.14,11111222 
ENP,ioos.station.NOAA.NDBC:TRRF1:1,2019-05-10T17:00:00Z,25.2170,-80.6500,1.5,24.47,11111222 
ENP,ioos.station.NOAA.NDBC:TRRF1:1,2019-05-10T18:00:00Z,25.2170,-80.6500,1.5,24.47,11111222 
ENP,ioos.station.NOAA.NDBC:TRRF1:1,2019-05-10T19:00:00Z,25.2170,-80.6500,1.5,24.51,11111222 
ENP,ioos.station.NOAA.NDBC:TRRF1:1,2019-05-10T20:00:00Z,25.2170,-80.6500,1.5,24.52,11111222 
ENP,ioos.station.NOAA.NDBC:TRRF1:1,2019-05-10T21:00:00Z,25.2170,-80.6500,1.5,24.58,11111222 
ENP,ioos.station.NOAA.NDBC:TRRF1:1,2019-05-10T22:00:00Z,25.2170,-80.6500,1.5,24.69,11111222 
ENP,ioos.station.NOAA.NDBC:TRRF1:1,2019-05-10T23:00:00Z,25.2170,-80.6500,1.5,24.88,11111222 
ENP,ioos.station.NOAA.NDBC:TRRF1:1,2019-05-11T00:00:00Z,25.2170,-80.6500,1.5,25.13,11111222 
ENP,ioos.station.NOAA.NDBC:TRRF1:1,2019-05-11T01:00:00Z,25.2170,-80.6500,1.5,25.9,11111222 
ENP,ioos.station.NOAA.NDBC:TRRF1:1,2019-05-11T02:00:00Z,25.2170,-80.6500,1.5,26.19,11111222 
ENP,ioos.station.NOAA.NDBC:TRRF1:1,2019-05-11T03:00:00Z,25.2170,-80.6500,1.5,26.4,11111222 
ENP,ioos.station.NOAA.NDBC:TRRF1:1,2019-05-11T04:00:00Z,25.2170,-80.6500,1.5,26.55,11111222 
ENP,ioos.station.NOAA.NDBC:TRRF1:1,2019-05-11T05:00:00Z,25.2170,-80.6500,1.5,26.59,11111222 
ENP,ioos.station.NOAA.NDBC:TRRF1:1,2019-05-11T06:00:00Z,25.2170,-80.6500,1.5,26.53,11111222 
ENP,ioos.station.NOAA.NDBC:TRRF1:1,2019-05-11T07:00:00Z,25.2170,-80.6500,1.5,26.79,11111222 
ENP,ioos.station.NOAA.NDBC:TRRF1:1,2019-05-11T08:00:00Z,25.2170,-80.6500,1.5,27.02,11111222 
ENP,ioos.station.NOAA.NDBC:TRRF1:1,2019-05-11T09:00:00Z,25.2170,-80.6500,1.5,27.24,11111222 
ENP,ioos.station.NOAA.NDBC:TRRF1:1,2019-05-11T10:00:00Z,25.2170,-80.6500,1.5,27.46,11111222 
ENP,ioos.station.NOAA.NDBC:TRRF1:1,2019-05-11T11:00:00Z,25.2170,-80.6500,1.5,27.56,11111222 
ENP,ioos.station.NOAA.NDBC:TRRF1:1,2019-05-11T12:00:00Z,25.2170,-80.6500,1.5,27.63,11111222 
ENP,ioos.station.NOAA.NDBC:TRRF1:1,2019-05-11T13:00:00Z,25.2170,-80.6500,1.5,27.7,11111222 
ENP,ioos.station.NOAA.NDBC:TRRF1:1,2019-05-11T14:00:00Z,25.2170,-80.6500,1.5,27.4,11111222 
ENP,ioos.station.NOAA.NDBC:TRRF1:1,2019-05-11T15:00:00Z,25.2170,-80.6500,1.5,26.6,11111222 
ENP,ioos.station.NOAA.NDBC:TRRF1:1,2019-05-11T16:00:00Z,25.2170,-80.6500,1.5,26.3,11111222 
ENP,ioos.station.NOAA.NDBC:TRRF1:1,2019-05-11T17:00:00Z,25.2170,-80.6500,1.5,25.9,11111222 
ENP,ioos.station.NOAA.NDBC:TRRF1:1,2019-05-11T18:00:00Z,25.2170,-80.6500,1.5,25.8,11111222 
ENP,ioos.station.NOAA.NDBC:TRRF1:1,2019-05-11T19:00:00Z,25.2170,-80.6500,1.5,25.8,11111222 
ENP,ioos.station.NOAA.NDBC:TRRF1:1,2019-05-11T20:00:00Z,25.2170,-80.6500,1.5,25.9,11111222 
ENP,ioos.station.NOAA.NDBC:TRRF1:1,2019-05-11T21:00:00Z,25.2170,-80.6500,1.5,26.1,11111222 
ENP,ioos.station.NOAA.NDBC:TRRF1:1,2019-05-11T22:00:00Z,25.2170,-80.6500,1.5,26.2,11111222 
ENP,ioos.station.NOAA.NDBC:TRRF1:1,2019-05-11T23:00:00Z,25.2170,-80.6500,1.5,26.2,11111222 
ENP,ioos.station.NOAA.NDBC:TRRF1:1,2019-05-12T00:00:00Z,25.2170,-80.6500,1.5,26.4,11111222 
ENP,ioos.station.NOAA.NDBC:TRRF1:1,2019-05-12T01:00:00Z,25.2170,-80.6500,1.5,27.6,11111222 
ENP,ioos.station.NOAA.NDBC:TRRF1:1,2019-05-12T02:00:00Z,25.2170,-80.6500,1.5,27.8,11111222 
ENP,ioos.station.NOAA.NDBC:TRRF1:1,2019-05-12T03:00:00Z,25.2170,-80.6500,1.5,28.1,11111222 
ENP,ioos.station.NOAA.NDBC:TRRF1:1,2019-05-12T04:00:00Z,25.2170,-80.6500,1.5,28.3,11111222 